Regional Weather Roundup
Issued by NWS Green Bay, WI

Home | Current Version | Previous Version | Text Only | Print | Product List | Glossary On
Versions: 1 2 3 4 5 6 7 8 9 10 11 12 13 14 15 16 17 18 19 20 21 22 23 24 25 26 27 28 29 30 31 32 33 34 35 36 37 38 39 40 41 42 43 44 45 46 47 48 49 50
000
ASUS43 KGRB 282211
RWRGRB

NORTH-CENTRAL AND NORTHEAST WISCONSIN REGIONAL WEATHER ROUNDUP
NATIONAL WEATHER SERVICE GREEN BAY WI
500 PM CDT SUN AUG 28 2016

WIZ005-009-010>012-018-019-282300-
NORTH CENTRAL WISCONSIN

CITY           SKY/WX    TMP DP  RH WIND       PRES   REMARKS
IRONWOOD       PTSUNNY   78  59  51 S6        30.17F
MANITOWISH WTR SUNNY     75  60  58 CALM      30.20S
ARBOR VITAE    SUNNY     77  62  60 S3        30.20S
EAGLE RIVER    SUNNY     75  59  56 W5        30.20F
LAND O LAKES   SUNNY     75  58  55 CALM      30.21F
RHINELANDER    SUNNY     78  60  53 S5        30.20F
PHILLIPS       MOSUNNY   76  62  62 S3        30.18S
ANTIGO         SUNNY     76  60  57 CALM      30.20F
TOMAHAWK       MOSUNNY   76  62  60 S3        30.19F
MERRILL        SUNNY     77  62  59 CALM      30.20S
$$

WIZ013-073-282300-
NORTHEAST WISCONSIN

CITY           SKY/WX    TMP DP  RH WIND       PRES   REMARKS
IRON MOUNTAIN  CLOUDY    80  56  43 CALM      30.17F
MARINETTE      SUNNY    N/A N/A N/A S7        30.19R
OCONTO         SUNNY     76  63  63 S7        30.18S
$$

WIZ017-030-035>037-045-282300-
CENTRAL WISCONSIN

CITY           SKY/WX    TMP DP  RH WIND       PRES   REMARKS
MEDFORD        MOSUNNY   74  64  69 S5        30.19S
WAUSAU         SUNNY     77  63  61 S5        30.17F
MOSINEE        MOSUNNY   77  64  65 CALM      30.20S
MARSHFIELD     MOSUNNY   78  63  59 S5        30.18S
WISC RAPIDS    SUNNY     80  65  59 SW8       30.19F
STEVENS POINT  MOSUNNY   77  62  59 CALM      30.19S
WAUPACA        SUNNY     82  64  54 CALM      30.18S
SHAWANO        MOSUNNY   81  63  54 CALM      30.19S
CLINTONVILLE   SUNNY     79  61  53 W3        30.18S
WAUTOMA        CLOUDY    79  66  64 SE3       30.18S
$$

WIZ038-039-048-051-282300-
FOX VALLEY

CITY           SKY/WX    TMP DP  RH WIND       PRES   REMARKS
NWS GREEN BAY  SUNNY     80  65  59 CALM      30.18S
APPLETON       MOSUNNY   79  61  53 VRB5      30.18R
OSHKOSH        SUNNY     77  65  66 E7        30.19R
FOND DU LAC    SUNNY     79  65  62 CALM      30.19S
$$

WIZ022-050-052-282300-
EAST CENTRAL WISCONSIN

CITY           SKY/WX    TMP DP  RH WIND       PRES   REMARKS
EPHRAIM        FAIR      75  62  64 CALM      30.19R
WASHINGTON ISL NOT AVBL
STURGEON BAY   SUNNY     75  64  68 SE6       30.21R
MANITOWOC      SUNNY     72  63  73 SE10      30.21S
SHEBOYGAN      CLOUDY    74  65  73 S12       30.20S
$$

LMZ563-521-522-541>543-282300-
LAKESHORE

STATION/POSITION TIME  TEMP    WIND        PRES    VSBY  WAVE
                       AIR SEA DIR/SP/G                  HT/PER
                 (UTC) (F)     (DEG/KT/KT) (MB)    (MI)  (FT/S)
SHEBOYGAN LKSHOR 2200   67     180/ 10/ 10 1022.2F
KEWAUNEE LKSHORE 2100   67     170/  6/  6 1022.0S
NORTHPORT PIER   2100   72     140/  7/  9 1021.7
N MID LAKE BUOY  2150   71 72  200/  8/  8 1021.9R         1
CHAMBERS ISLAND  2100   75     170/  2/  8 1021.7S
MENOMINEE LKSHOR 2100   71     150/  9/ 10 1020.9F
$$



USA.gov is the U.S. government's official web portal to all federal, state and local government web resources and services.